Monroe, MI

1:58 AM EST on December 15, 2017 (GMT -0500)
Custer

Weather History for KTTF - January, 2013

Change the Weather History Date:

Tuesday, January 22, 2013

  Actual Average Record
Temperature  
Mean Temperature 6 °F -  
Max Temperature 12 °F 33 °F 65 °F (1933)
Min Temperature 1 °F 18 °F -16 °F (1984)
Degree Days  
Heating Degree Days 58    
Moisture  
Dew Point -1 °F    
Average Humidity 70    
Maximum Humidity 85    
Minimum Humidity 56    
Precipitation  
Precipitation 0.00 in - - ()
Sea Level Pressure  
Sea Level Pressure 30.22 in    
Wind  
Wind Speed 9 mph (West)    
Max Wind Speed 15 mph    
Max Gust Speed 20 mph    
Visibility 9 miles    
Events Snow    
Averages and records for this station are not official NWS values.
T = Trace of Precipitation, MM = Missing Value Source: NWS Daily Summary

Daily Weather History Graph

Daily Weather History Graph

Search for Another Location

Airport or City:

Trip Planner

Search our weather history database for the weather conditions in past years. The results will help you decide how hot, cold, wet, or windy it might be!

Date:

Astronomy

Jan. 22, 2013 Rise Set
Actual Time 7:54 AM EST 5:36 PM EST
Civil Twilight 7:24 AM EST 6:06 PM EST
Nautical Twilight 6:50 AM EST 6:40 PM EST
Astronomical Twilight 6:17 AM EST 7:13 PM EST
Moon 1:57 PM EST (1/22) 4:16 AM EST (1/22)
Length of Visible Light 10h 42m
Length of Day
9h 41m
Waxing Gibbous, 82% of the Moon is Illuminated
Jan 22
Waxing Gibbous
Jan 26
Full
Feb 3
Last Quarter
Feb 10
New
Feb 17
First Quarter

Hourly Weather History & Observations

Time (EST) Temp. Windchill Dew Point Humidity Pressure Visibility Wind Dir Wind Speed Gust Speed Precip Events Conditions
12:31 AM 8.6 °F -3.7 °F 3.2 °F 79% 30.10 in 4.0 mi NW 8.1 mph - N/A Snow Light Snow
12:51 AM 6.8 °F -4.8 °F 1.4 °F 79% 30.11 in 5.0 mi NW 6.9 mph - N/A   Mostly Cloudy
1:11 AM 6.8 °F -6.9 °F -0.4 °F 72% 30.10 in 10.0 mi NW 9.2 mph - N/A   Scattered Clouds
1:31 AM 5.0 °F -8.1 °F -0.4 °F 78% 30.11 in 10.0 mi WNW 8.1 mph - N/A   Clear
2:11 AM 5.0 °F -6.9 °F -0.4 °F 78% 30.12 in 10.0 mi WNW 6.9 mph - N/A   Clear
2:31 AM 5.0 °F -6.9 °F -0.4 °F 78% 30.13 in 10.0 mi WNW 6.9 mph - N/A   Clear
2:51 AM 5.0 °F -10.8 °F -2.2 °F 72% 30.13 in 10.0 mi WNW 11.5 mph 16.1 mph N/A   Clear
3:12 AM 5.0 °F -10.0 °F -2.2 °F 72% 30.14 in 10.0 mi WNW 10.4 mph - N/A   Clear
3:32 AM 5.0 °F -10.0 °F -2.2 °F 72% 30.14 in 10.0 mi WNW 10.4 mph - N/A   Scattered Clouds
3:52 AM 3.2 °F -13.9 °F -2.2 °F 78% 30.15 in 10.0 mi WNW 12.7 mph - N/A   Scattered Clouds
4:12 AM 3.2 °F -13.1 °F -5.8 °F 66% 30.15 in 10.0 mi WNW 11.5 mph - N/A   Scattered Clouds
4:32 AM 3.2 °F -13.1 °F -7.6 °F 61% 30.16 in 10.0 mi WNW 11.5 mph 16.1 mph N/A   Clear
4:52 AM 3.2 °F -12.2 °F -7.6 °F 61% 30.16 in 10.0 mi WNW 10.4 mph - N/A   Clear
5:12 AM 3.2 °F -12.2 °F -7.6 °F 61% 30.17 in 10.0 mi WNW 10.4 mph - N/A   Clear
5:32 AM 3.2 °F -11.3 °F -7.6 °F 61% 30.18 in 10.0 mi WNW 9.2 mph - N/A   Clear
5:52 AM 1.4 °F -14.5 °F -7.6 °F 66% 30.19 in 10.0 mi WNW 10.4 mph - N/A   Scattered Clouds
6:13 AM 1.4 °F -13.5 °F -7.6 °F 66% 30.19 in 10.0 mi WNW 9.2 mph - N/A   Scattered Clouds
6:33 AM 1.4 °F -11.3 °F -7.6 °F 66% 30.20 in 10.0 mi WNW 6.9 mph - N/A   Clear
6:53 AM 1.4 °F -9.9 °F -7.6 °F 66% 30.21 in 10.0 mi WNW 5.8 mph - N/A   Clear
7:13 AM 1.4 °F -9.9 °F -7.6 °F 66% 30.21 in 10.0 mi WNW 5.8 mph - N/A   Clear
7:33 AM 1.4 °F -8.3 °F -7.6 °F 66% 30.22 in 10.0 mi West 4.6 mph - N/A   Scattered Clouds
7:53 AM 1.4 °F -8.3 °F -7.6 °F 66% 30.23 in 10.0 mi West 4.6 mph - N/A   Mostly Cloudy
8:13 AM 1.4 °F -11.3 °F -7.6 °F 66% 30.23 in 10.0 mi West 6.9 mph - N/A   Overcast
8:33 AM 1.4 °F -11.3 °F -5.8 °F 72% 30.24 in 10.0 mi West 6.9 mph - N/A   Overcast
8:53 AM 3.2 °F -10.3 °F -5.8 °F 66% 30.25 in 10.0 mi West 8.1 mph - N/A   Overcast
9:13 AM 3.2 °F -12.2 °F -7.6 °F 61% 30.25 in 10.0 mi West 10.4 mph - N/A   Overcast
9:34 AM 3.2 °F -10.3 °F -5.8 °F 66% 30.26 in 10.0 mi West 8.1 mph - N/A   Overcast
9:54 AM 5.0 °F -8.1 °F -5.8 °F 61% 30.27 in 10.0 mi WNW 8.1 mph - N/A   Mostly Cloudy
10:14 AM 6.8 °F -9.3 °F -5.8 °F 56% 30.27 in 10.0 mi WNW 12.7 mph - N/A   Mostly Cloudy
10:34 AM 6.8 °F -9.3 °F -5.8 °F 56% 30.28 in 10.0 mi West 12.7 mph - N/A   Overcast
10:54 AM 6.8 °F -9.3 °F -4.0 °F 61% 30.28 in 10.0 mi West 12.7 mph - N/A   Overcast
11:14 AM 8.6 °F -6.3 °F -2.2 °F 62% 30.28 in 10.0 mi WNW 11.5 mph - N/A   Mostly Cloudy
11:34 AM 8.6 °F -7.7 °F -2.2 °F 62% 30.27 in 10.0 mi West 13.8 mph - N/A   Mostly Cloudy
11:54 AM 8.6 °F -6.3 °F -0.4 °F 67% 30.27 in 10.0 mi West 11.5 mph - N/A   Scattered Clouds
12:14 PM 8.6 °F -7.0 °F -0.4 °F 67% 30.26 in 10.0 mi West 12.7 mph - N/A   Scattered Clouds
12:35 PM 8.6 °F -4.7 °F -0.4 °F 67% 30.25 in 10.0 mi West 9.2 mph - N/A   Mostly Cloudy
12:55 PM 8.6 °F -6.3 °F -0.4 °F 67% 30.25 in 10.0 mi West 11.5 mph - N/A   Overcast
1:15 PM 8.6 °F -6.3 °F 3.2 °F 79% 30.24 in 1.5 mi WSW 11.5 mph - N/A Snow Light Snow
1:35 PM 10.4 °F -4.8 °F 3.2 °F 73% 30.23 in 2.0 mi WSW 12.7 mph - N/A Snow Light Snow
1:55 PM 10.4 °F -4.1 °F 3.2 °F 73% 30.23 in 2.5 mi WSW 11.5 mph 16.1 mph N/A Snow Light Snow
2:15 PM 10.4 °F -4.1 °F 3.2 °F 73% 30.23 in 1.5 mi WSW 11.5 mph - N/A Snow Light Snow
2:35 PM 10.4 °F -2.4 °F 6.8 °F 85% 30.23 in 1.8 mi West 9.2 mph - N/A Snow Light Snow
2:55 PM 10.4 °F -3.3 °F 5.0 °F 79% 30.23 in 3.0 mi West 10.4 mph - N/A Snow Light Snow
3:15 PM 10.4 °F 0.8 °F 6.8 °F 85% 30.23 in 2.0 mi NW 5.8 mph - N/A Snow Light Snow
3:36 PM 10.4 °F -0.4 °F 6.8 °F 85% 30.23 in 3.0 mi WNW 6.9 mph - N/A Snow Light Snow
3:56 PM 10.4 °F 0.8 °F 3.2 °F 73% 30.23 in 5.0 mi WNW 5.8 mph - N/A   Haze
4:11 PM 12.2 °F 1.7 °F 3.2 °F 67% 30.22 in 10.0 mi West 6.9 mph - N/A   Overcast
4:31 PM 12.2 °F 0.7 °F 5.0 °F 73% 30.22 in 10.0 mi WSW 8.1 mph - N/A   Overcast
4:51 PM 12.2 °F -2.5 °F 5.0 °F 73% 30.22 in 10.0 mi West 12.7 mph - N/A   Overcast
5:11 PM 10.4 °F -2.4 °F 6.8 °F 85% 30.23 in 7.0 mi WSW 9.2 mph - N/A   Overcast
5:31 PM 12.2 °F -1.8 °F 6.8 °F 79% 30.23 in 7.0 mi WSW 11.5 mph - N/A   Mostly Cloudy
5:51 PM 12.2 °F -1.0 °F 8.6 °F 85% 30.24 in 2.5 mi WSW 10.4 mph - N/A Snow Light Snow
6:11 PM 12.2 °F -3.7 °F 5.0 °F 73% 30.24 in 7.0 mi WSW 15.0 mph 19.6 mph N/A Snow Light Snow
6:31 PM 10.4 °F -6.0 °F 5.0 °F 79% 30.25 in 10.0 mi WSW 15.0 mph - N/A   Mostly Cloudy
6:52 PM 10.4 °F -5.4 °F 3.2 °F 73% 30.25 in 10.0 mi WSW 13.8 mph 18.4 mph N/A   Mostly Cloudy
7:12 PM 10.4 °F -2.4 °F 3.2 °F 73% 30.25 in 10.0 mi West 9.2 mph - N/A   Scattered Clouds
7:32 PM 8.6 °F -5.5 °F 1.4 °F 73% 30.25 in 10.0 mi WSW 10.4 mph - N/A   Clear
7:52 PM 8.6 °F -7.0 °F 1.4 °F 73% 30.26 in 10.0 mi WSW 12.7 mph - N/A   Clear
8:12 PM 8.6 °F -6.3 °F 1.4 °F 73% 30.25 in 10.0 mi West 11.5 mph - N/A   Clear
8:32 PM 8.6 °F -3.7 °F 1.4 °F 73% 30.25 in 10.0 mi West 8.1 mph - N/A   Clear
8:52 PM 8.6 °F -3.7 °F 1.4 °F 73% 30.26 in 10.0 mi West 8.1 mph - N/A   Mostly Cloudy
9:12 PM 8.6 °F -4.7 °F 1.4 °F 73% 30.26 in 10.0 mi WSW 9.2 mph - N/A   Scattered Clouds
9:32 PM 8.6 °F -3.7 °F 1.4 °F 73% 30.25 in 10.0 mi WSW 8.1 mph - N/A   Mostly Cloudy
9:52 PM 8.6 °F -4.7 °F 1.4 °F 73% 30.25 in 10.0 mi West 9.2 mph - N/A   Overcast
10:13 PM 8.6 °F -3.7 °F -0.4 °F 67% 30.25 in 10.0 mi West 8.1 mph - N/A   Overcast
10:33 PM 8.6 °F -2.6 °F -0.4 °F 67% 30.25 in 10.0 mi West 6.9 mph - N/A   Overcast
10:53 PM 8.6 °F -4.7 °F -0.4 °F 67% 30.25 in 10.0 mi West 9.2 mph - N/A   Overcast
11:13 PM 8.6 °F -4.7 °F -0.4 °F 67% 30.25 in 10.0 mi WSW 9.2 mph - N/A   Overcast
11:33 PM 8.6 °F -3.7 °F -0.4 °F 67% 30.26 in 10.0 mi West 8.1 mph - N/A   Overcast
11:53 PM 10.4 °F -3.3 °F -0.4 °F 62% 30.26 in 10.0 mi West 10.4 mph - N/A   Overcast